{"data":{"norad_id":67039,"epoch":"2026-05-24T21:10:57.727776Z","epoch_age_seconds":82330,"freshness":"FRESH","line1":"1 67039U 25294K   26144.88261259  .00012533  00000+0  46395-3 0  9998","line2":"2 67039  43.0024 327.6278 0001347 275.7171  84.3527 15.27597536 26456","mean_motion":15.27597536,"eccentricity":0.0001347,"inclination_deg":43.0024,"raan_deg":327.6278,"arg_perigee_deg":275.7171,"mean_anomaly_deg":84.3527,"bstar":0.00046395,"rev_number":2645,"period_min":94.26566658196,"perigee_km":482.0723927552,"apogee_km":483.92078214365,"semimajor_km":6861.1335874494,"source":"CELESTRAK","updated_at":"2026-05-25T13:38:21.438086Z"}}